Regional Weather Roundup
Issued by NWS

Home | Current Version | Previous Version | Graphics & Text | Print | Product List | Glossary On
Versions: 1 2 3 4 5 6 7 8 9 10 11 12 13 14 15 16 17 18 19 20 21 22 23 24 25 26 27 28 29 30 31 32 33 34 35 36 37 38 39 40 41 42 43 44 45 46 47 48 49 50
000
ASUS43 KMPX 230510
RWRMN
WEATHER ROUNDUP FOR MINNESOTA
NATIONAL WEATHER SERVICE TWIN CITIES/CHANHASSEN MN
1100 PM CST SAT NOV 22 2014


NOTE: "FAIR" INDICATES FEW OR NO CLOUDS BELOW 12,000 FEET WITH NO
SIGNIFICANT WEATHER AND/OR OBSTRUCTIONS TO VISIBILITY. N/A MEANS
CURRENT SKY AND/OR WEATHER CONDITIONS ARE NOT AVAILABLE.

MNZ060>063-068>070-230600-
   Twin Cities Metro

CITY           SKY/WX    TMP DP  RH WIND       PRES   REMARKS
TWIN CITIES    CLOUDY    38  37  97 SE9       29.52F FOG
ST PAUL        CLOUDY    37  37 100 SE7       29.55F FOG
CRYSTAL        CLOUDY    40  38  93 SE10      29.50F FOG
LAKEVILLE        N/A     39  39 100 S6        29.53R FOG
EDEN PRAIRIE   CLOUDY    42  40  92 SE9       29.50F FOG
SOUTH ST PAUL  CLOUDY    38  38  97 CALM      29.54R FOG
LAKE ELMO      CLOUDY    37  37 100 S7        29.55S FOG
$$
MNZ001>005-007-008-013>017-022>024-027-028-230600-
   Northwest Minnesota

CITY           SKY/WX    TMP DP  RH WIND       PRES   REMARKS
BEMIDJI        CLOUDY    32  30  94 S13       29.42S FOG     WCI  22
HALLOCK        MOCLDY    36  30  80 S14       29.34S
ROSEAU         MOCLDY    36  30  80 S3        29.38R
WARROAD        CLOUDY    36  30  80 CALM      29.39R
THIEF RVR FALL CLOUDY    34  30  86 S9        29.38S WCI  26
CROOKSTON      CLOUDY    34  30  86 S12       29.39S WCI  25
FOSSTON        MOCLDY    30  27  86 SE8       29.37F WCI  23
DETROIT LAKES  CLOUDY    32  32 100 SE12      29.40S FOG     WCI  23
MOORHEAD       CLOUDY    36  36 100 S13       29.39R FOG
PARK RAPIDS    CLOUDY    32  32 100 SE15      29.42F FOG     WCI  22
MAHNOMEN       CLOUDY    32  31  95 S12G17    29.36F WCI  23
$$
MNZ006-009>011-018-025>026-230600-
   North Central Minnesota

CITY           SKY/WX    TMP DP  RH WIND       PRES   REMARKS
BAUDETTE       CLOUDY    36  29  75 SE8       29.38F
FLAG ISLAND    CLOUDY    34  30  86 E8        29.38F WCI  27
INTL FALLS     CLOUDY    33  29  85 E8        29.44F WCI  26
WASKISH        CLOUDY    36  30  80 SE12      29.41R
BIG FORK       CLOUDY    34  30  86 S13       29.46R FOG     WCI  25
LONGVILLE      CLOUDY    32  30  93 SE9       29.45F FOG     WCI  24
GRAND RAPIDS   CLOUDY    32  28  86 SE17      29.47S WCI  21
CRANE LAKE     CLOUDY    30  28  93 CALM      29.50F FOG
ORR            CLOUDY    30  28  93 SE7       29.45S FOG     WCI  23
COOK           CLOUDY    32  30  93 SE8       29.48F FOG     WCI  25
WALKER         CLOUDY    31  31  98 SE9       29.44S FOG     WCI  23
$$
MNZ012-019>021-037-230600-
   Northeast Minnesota

CITY           SKY/WX    TMP DP  RH WIND       PRES   REMARKS
DULUTH         FOG       33  31  92 SE13      29.53F VSB 1/4 WCI  24
ELY            CLOUDY    32  30  93 E5        29.50F FOG     WCI  27
HIBBING        CLOUDY    33  30  88 S10       29.49F WCI  25
EVELETH        CLOUDY    32  32 100 SE10      29.51F FOG     WCI  24
DULUTH HARBOR  CLOUDY    36  32  87 CALM      29.58F
TWO HARBORS    CLOUDY    37  32  81 SE7       29.55S
SILVER BAY     CLOUDY    36  32  87 E6        29.54F FOG
GRAND MARAIS     N/A     38  34  85 S7        29.63F
G MARAIS ARPRT CLOUDY    30  28  93 S7        29.59F VSB 1/2 WCI  23
$$
MNZ029>031-032-039>041-046>048-054>057-064-230600-
   West Central Minnesota

CITY           SKY/WX    TMP DP  RH WIND       PRES   REMARKS
FERGUS FALLS   CLOUDY    34  34 100 SE13      29.41S FOG     WCI  25
WHEATON        CLOUDY    30  30 100 CALM      29.40R FOG
MORRIS         CLOUDY    34  34 100 SE14      29.38F FOG     WCI  24
ALEXANDRIA     FOG       34  34 100 SE13      29.40F VSB 1   WCI  25
ELBOW LAKE       N/A     33  33  99 SE12      29.38F FOG     WCI  24
WADENA         FOG       32  30  93 SE10      29.41F VSB 3/4 WCI  24
GLENWOOD       CLOUDY    34  34 100 SE10      29.41F FOG     WCI  26
APPLETON       CLOUDY    36  34  93 S8        29.39F
BENSON         CLOUDY    36  34  93 S9        29.40F FOG
ORTONVILLE     CLOUDY    32  30  93 SE9       29.38S WCI  24
MADISON        CLOUDY    39  36  87 CALM      29.39R
WILLMAR        FAIR      36  34  93 SE10      29.44F FOG
$$
MNZ033>034-036-042>043-049>051-058-059-230600-
   Central Minnesota

CITY           SKY/WX    TMP DP  RH WIND       PRES   REMARKS
ST CLOUD       FOG       36  34  92 SE8       29.46F VSB 1/4
SAUK CENTRE    CLOUDY    34  34 100 SE9       29.43F FOG     WCI  26
PAYNESVILLE    CLOUDY    33  33 100 E12       29.45F FOG     WCI  25
AITKIN         HAZE      36  30  80 S9        29.47F VSB 1
PINE RIVER     CLOUDY    32  32 100 SE9G16    29.50S FOG     WCI  24
BRAINERD       CLOUDY    32  32 100 SE9       29.46F FOG     WCI  24
STAPLES        FOG       32  32 100 SE8       29.43F VSB 1   WCI  25
LONG PRAIRIE   FOG       32  32 100 SE9       29.43F VSB 1/2 WCI  24
LITTLE FALLS   FOG       34  32  93 SE8       29.46F VSB 1/2 WCI  27
LITCHFIELD     CLOUDY    39  39 100 S6        29.46F FOG
BUFFALO        CLOUDY    38  37  95 SE5       29.49F FOG
MAPLE LAKE     FOG       37  37 100 SE7       29.48F VSB 1/2
$$
MNZ037-044-045-052-053-230600-
   East Central Minnesota

CITY           SKY/WX    TMP DP  RH WIND       PRES   REMARKS
PRINCETON      FOG       36  36 100 CALM      29.49F VSB 1/4
MORA           FOG       32  32 100 SE5       29.52F VSB 1/2 WCI  27
CAMBRIDGE      HAZE      39  32  75 SE5       29.48F VSB 1
RUSH CITY      CLOUDY    36  35  96 SE7       29.52F FOG
MOOSE LAKE     CLOUDY    34  32  93 CALM      29.50F FOG
HINCKLEY       FOG       34  34 100 CALM      29.52F VSB 1/2
CLOQUET        FOG       34  32  93 SE7       29.52F VSB 1/2 WCI  28
MCGREGOR       CLOUDY    34  32  93 S8        29.50F WCI  27
$$
MNZ071>073-080-081-089-090-097-098-230600-
   Southwest Minnesota

CITY           SKY/WX    TMP DP  RH WIND       PRES   REMARKS
MONTEVIDEO     CLOUDY    36  36 100 SW6       29.42F
GRANITE FALLS  CLOUDY    37  35  93 S10       29.43F
CANBY          CLOUDY    41  35  79 SW15G23   29.39F
MARSHALL       CLOUDY    43  36  75 SW21      29.42S
REDWOOD FALLS  CLOUDY    41  39  93 S13       29.44F FOG
OLIVIA         CLOUDY    36  36 100 S8        29.44S FOG
PIPESTONE      CLOUDY    41  37  87 SW16      29.44F
WINDOM         CLOUDY    48  46  93 S16G26    29.47F FOG
WORTHINGTON    CLOUDY    48  46  93 SW16G25   29.49R
JACKSON        CLOUDY    48  45  87 SW17G23   29.50S
TRACY          CLOUDY    44  41  90 SW21G29   29.43F FOG
SLAYTON        CLOUDY    40  40 100 SW24      29.46S FOG
$$
MNZ065>067-074>077-082>085-091>093-230600-
   South Central Minnesota

CITY           SKY/WX    TMP DP  RH WIND       PRES   REMARKS
MANKATO        CLOUDY    46  43  87 S14       29.50F
NEW ULM        CLOUDY    46  46 100 S15       29.47S
ST JAMES       CLOUDY    50  46  87 S18       29.49F
FAIRMONT       CLOUDY    50  45  81 S20       29.51F
GLENCOE        CLOUDY    43  42  99 S8G16     29.47F FOG
FARIBAULT      CLOUDY    45  43  93 S9        29.53S FOG
OWATONNA       CLOUDY    46  45  93 S14       29.54R FOG
WASECA         CLOUDY    46  43  87 S14G22    29.54S FOG
ALBERT LEA     CLOUDY    48  48 100 S14G23    29.54F FOG
$$
MNZ078>079-086>088-094>096-230600-
   Southeast Minnesota

CITY           SKY/WX    TMP DP  RH WIND       PRES   REMARKS
ROCHESTER      FOG       48  47  96 S20       29.57F VSB 1/2
RED WING         N/A     41  39  93 SE7       29.55F FOG
STANTON        CLOUDY    46  44  90 S8        29.52S FOG
DODGE CENTER   FOG       46  46 100 S21       29.55F VSB 1/4
WINONA         CLOUDY    43  43 100 SE5       29.61F FOG
AUSTIN         DRZL/FOG  46  46 100 S10G17    29.56F VSB 1/4
PRESTON        FOG       47  47  98 S18G25    29.60F VSB 1/2
$$
ABBREVIATIONS USED IN REMARKS
   TC - TEMPERATURES IN CELSIUS
  WCI - WIND CHILL INDEX
   HX - HEAT INDEX
  VSB - VISIBILITY
$$


USA.gov is the U.S. government's official web portal to all federal, state and local government web resources and services.